TimeCEST,TemperatureF,Dew PointF,Humidity,Sea Level PressureIn,VisibilityMPH,Wind Direction,Wind SpeedMPH,Gust SpeedMPH,PrecipitationIn,Events,Conditions,WindDirDegrees,DateUTC
12:20 AM,59.0,50.0,72,29.98,6.2,SSE,3.5,-,N/A,,Scattered Clouds,150,2013-04-21 22:20:00
12:50 AM,59.0,50.0,72,29.98,6.2,SSE,3.5,-,N/A,,Mostly Cloudy,150,2013-04-21 22:50:00
1:20 AM,57.2,50.0,77,29.98,6.2,Variable,1.2,-,N/A,,Mostly Cloudy,0,2013-04-21 23:20:00
1:50 AM,55.4,48.2,77,29.95,6.2,Variable,2.3,-,N/A,,Scattered Clouds,0,2013-04-21 23:50:00
2:20 AM,55.4,48.2,77,29.95,6.2,ENE,3.5,-,N/A,,Scattered Clouds,60,2013-04-22 00:20:00
2:50 AM,55.4,48.2,77,29.95,6.2,East,2.3,-,N/A,,Scattered Clouds,80,2013-04-22 00:50:00
3:20 AM,55.4,50.0,82,29.95,6.2,ENE,3.5,-,N/A,,Scattered Clouds,60,2013-04-22 01:20:00
3:50 AM,53.6,50.0,88,29.92,6.2,NE,3.5,-,N/A,,Scattered Clouds,50,2013-04-22 01:50:00
4:20 AM,53.6,50.0,88,29.92,6.2,ENE,3.5,-,N/A,,Partly Cloudy,70,2013-04-22 02:20:00
4:50 AM,53.6,50.0,88,29.92,6.2,NE,2.3,-,N/A,,Partly Cloudy,50,2013-04-22 02:50:00
5:20 AM,53.6,50.0,88,29.92,6.2,NE,3.5,-,N/A,,Scattered Clouds,40,2013-04-22 03:20:00
5:50 AM,53.6,48.2,82,29.92,6.2,NNW,6.9,-,N/A,,Mostly Cloudy,340,2013-04-22 03:50:00
6:20 AM,51.8,46.4,82,29.95,6.2,NW,10.4,-,N/A,,Mostly Cloudy,310,2013-04-22 04:20:00
6:50 AM,50.0,46.4,87,29.95,5.0,NNE,6.9,-,N/A,,Mostly Cloudy,30,2013-04-22 04:50:00
7:20 AM,50.0,46.4,87,29.95,6.2,East,6.9,-,N/A,Rain,Light Rain,100,2013-04-22 05:20:00
7:50 AM,48.2,46.4,93,29.95,3.1,East,6.9,-,N/A,Rain,Light Rain,100,2013-04-22 05:50:00
8:20 AM,50.0,46.4,87,29.95,1.9,SE,5.8,-,N/A,Rain,Rain,140,2013-04-22 06:20:00
8:50 AM,50.0,46.4,87,29.95,2.5,ESE,8.1,-,N/A,Rain,Rain,120,2013-04-22 06:50:00
9:20 AM,50.0,46.4,87,29.95,5.0,SSE,4.6,-,N/A,Rain,Light Rain,160,2013-04-22 07:20:00
9:50 AM,50.0,46.4,87,29.95,3.7,ESE,6.9,-,N/A,Rain,Light Rain,110,2013-04-22 07:50:00
10:20 AM,50.0,46.4,87,29.98,3.1,Variable,5.8,-,N/A,Rain,Rain,0,2013-04-22 08:20:00
10:50 AM,51.8,48.2,88,29.98,6.2,NE,5.8,-,N/A,Rain,Light Rain,50,2013-04-22 08:50:00
11:20 AM,53.6,50.0,88,29.95,6.2,NE,8.1,-,N/A,,Mostly Cloudy,40,2013-04-22 09:20:00
11:50 AM,55.4,48.2,77,29.95,6.2,NE,8.1,-,N/A,,Mostly Cloudy,50,2013-04-22 09:50:00
12:20 PM,57.2,48.2,72,29.95,6.2,East,6.9,-,N/A,,Mostly Cloudy,90,2013-04-22 10:20:00
12:50 PM,59.0,48.2,67,29.95,6.2,East,5.8,-,N/A,,Scattered Clouds,90,2013-04-22 10:50:00
1:20 PM,60.8,48.2,63,29.95,6.2,East,5.8,-,N/A,,Scattered Clouds,90,2013-04-22 11:20:00
1:50 PM,62.6,48.2,59,29.95,6.2,South,8.1,-,N/A,,Scattered Clouds,190,2013-04-22 11:50:00
2:20 PM,62.6,48.2,59,29.95,6.2,SSW,9.2,-,N/A,,Scattered Clouds,200,2013-04-22 12:20:00
2:50 PM,64.4,48.2,56,29.92,6.2,South,6.9,-,N/A,,Scattered Clouds,180,2013-04-22 12:50:00
3:20 PM,62.6,46.4,55,29.92,6.2,SSW,9.2,-,N/A,,Scattered Clouds,210,2013-04-22 13:20:00
3:50 PM,62.6,48.2,59,29.92,6.2,SW,10.4,-,N/A,,Scattered Clouds,220,2013-04-22 13:50:00
4:20 PM,62.6,50.0,63,29.92,6.2,SSW,9.2,-,N/A,,Mostly Cloudy,200,2013-04-22 14:20:00
4:50 PM,60.8,48.2,63,29.92,6.2,SSW,9.2,-,N/A,,Mostly Cloudy,210,2013-04-22 14:50:00
5:20 PM,60.8,48.2,63,29.95,6.2,SSW,8.1,-,N/A,,Mostly Cloudy,200,2013-04-22 15:20:00
5:50 PM,60.8,46.4,59,29.95,6.2,SSW,8.1,-,N/A,,Mostly Cloudy,200,2013-04-22 15:50:00
6:20 PM,59.0,46.4,63,29.95,6.2,SSW,8.1,-,N/A,,Mostly Cloudy,200,2013-04-22 16:20:00
6:50 PM,59.0,46.4,63,29.95,6.2,South,5.8,-,N/A,,Scattered Clouds,190,2013-04-22 16:50:00
7:20 PM,59.0,46.4,63,29.95,6.2,SSW,4.6,-,N/A,,Scattered Clouds,200,2013-04-22 17:20:00
7:50 PM,59.0,46.4,63,29.98,6.2,SSW,4.6,-,N/A,,Scattered Clouds,210,2013-04-22 17:50:00
8:20 PM,59.0,46.4,63,29.98,6.2,SSW,3.5,-,N/A,,Scattered Clouds,200,2013-04-22 18:20:00
8:50 PM,59.0,46.4,63,29.98,6.2,SSW,5.8,-,N/A,,Scattered Clouds,200,2013-04-22 18:50:00
9:20 PM,57.2,46.4,67,30.01,6.2,SSW,3.5,-,N/A,,Scattered Clouds,210,2013-04-22 19:20:00
9:50 PM,57.2,46.4,67,30.01,6.2,SSW,3.5,-,N/A,,Partly Cloudy,210,2013-04-22 19:50:00
10:20 PM,57.2,46.4,67,30.01,6.2,SSW,3.5,-,N/A,,Partly Cloudy,210,2013-04-22 20:20:00
10:50 PM,55.4,46.4,72,30.04,-9999.0,North,-9999.0,-,N/A,,Partly Cloudy,0,2013-04-22 20:50:00
11:00 PM,55.4,46.4,72,30.04,-9999.0,North,-9999.0,-,N/A,,Partly Cloudy,0,2013-04-22 21:00:00
11:20 PM,55.4,46.4,72,30.04,6.2,North,4.6,-,N/A,,Partly Cloudy,10,2013-04-22 21:20:00
11:50 PM,55.4,48.2,77,30.04,6.2,NNE,3.5,-,N/A,,Partly Cloudy,20,2013-04-22 21:50:00